Location: Roussillon
(43.9008°N, 5.2947°E)
Time: 06:52:50
(UTC+00:00)

BREEZE-M R/B - Pass Details

Date: 07 June 2020
Orbit: 311 x 4533 km, 49.7° (Epoch: 04 July)

Event Time Altitude Azimuth Distance (km) Brightness Sun altitude
Rises 02:53:35 0° 295° (WNW) 2,934 6.3 -9.6°
Reaches altitude 10° 02:56:25 10° 301° (WNW) 1,645 5.1 -9.3°
Maximum altitude 02:59:38 48° 18° (NNE) 476 3.0 -8.9°
Drops below altitude 10° 03:02:00 10° 96° (E) 1,213 5.2 -8.6°
Sets 03:03:47 0° 103° (ESE) 2,033 6.3 -8.3°
